DW9780 Oslo NO current weather conditions

sailwx.info

Wind from 251

Air temperature 13.3° C
Dewpoint -41.8° C

Last reported at 2019-Jun-20 03:01 UTC.
Time now 2019-Jun-20 03:17 UTC

Location: N 59°47' E 010°42'.
View on Google Maps.

See reports from other nearby stations

  
Tides and Currents Weather Stations Pressure Air Temp Water Temp Dewpoint Dewpoint Depression Visibility Wind Speed Wind Dir Waves Ship Positions
date/time (UTC)wind fromknots sea level pressurealtimeterstation pressurevisibilityair tempwater tempwave heightnotes
2019-Jun-20 03:01 251 13.3
2019-Jun-20 02:45 347 13.3
2019-Jun-20 02:30 347 13.3
2019-Jun-20 02:15 347 13.3
2019-Jun-20 02:00 347 13.3
2019-Jun-20 01:45 339 13.3
2019-Jun-20 01:30 339 13.3
2019-Jun-20 01:15 339 13.3
2019-Jun-20 00:48 342 13.3
2019-Jun-20 00:31 033 13.3
2019-Jun-20 00:16 053 12.8
2019-Jun-20 00:01 310 12.8
2019-Jun-19 23:46 310 12.8
2019-Jun-19 23:30 309 12.2
2019-Jun-19 23:16 340 12.2
2019-Jun-19 23:00 346 12.2
2019-Jun-19 22:46 042 12.2
2019-Jun-19 22:30 334 12.8
2019-Jun-19 22:15 023 13.3
2019-Jun-19 22:00 023 13.3
2019-Jun-19 21:45 203 1 gusting 4 13.3
2019-Jun-19 21:31 241 13.9
2019-Jun-19 21:16 240 13.9
2019-Jun-19 21:03 240 14.4
2019-Jun-19 20:46 240 15.0
2019-Jun-19 20:30 240 15.0
2019-Jun-19 20:16 240 15.0
2019-Jun-19 20:01 240 15.0
2019-Jun-19 19:45 240 15.0
2019-Jun-19 19:30 240 15.6
2019-Jun-19 19:15 240 15.0
2019-Jun-19 19:00 240 15.6
2019-Jun-19 18:45 240 15.6
2019-Jun-19 18:30 240 15.6
2019-Jun-19 18:15 240 15.6
2019-Jun-19 18:02 240 15.6
2019-Jun-19 17:46 240 15.6
2019-Jun-19 17:31 240 15.6
2019-Jun-19 17:16 240 15.6
2019-Jun-19 17:01 240 16.1
2019-Jun-19 16:46 240 16.7
2019-Jun-19 16:31 240 17.2
2019-Jun-19 16:16 240 17.8
2019-Jun-19 16:01 133 18.3
2019-Jun-19 15:46 133 18.3
2019-Jun-19 15:30 133 18.3
2019-Jun-19 15:15 133 18.9
2019-Jun-19 15:00 133 18.9
2019-Jun-19 14:45 133 18.9
2019-Jun-19 14:31 133 18.3
2019-Jun-19 14:16 133 18.3
2019-Jun-19 14:02 133 17.8
2019-Jun-19 13:47 133 18.3
2019-Jun-19 13:31 133 18.3
2019-Jun-19 13:15 133 18.3
2019-Jun-19 13:01 133 18.3
2019-Jun-19 12:45 133 18.3
2019-Jun-19 12:31 133 18.3
2019-Jun-19 12:15 178 17.8
2019-Jun-19 12:00 119 0 gusting 4 17.8
2019-Jun-19 11:45 173 0 gusting 4 17.8
2019-Jun-19 11:30 116 0 gusting 3 17.8
2019-Jun-19 11:01 130 0 gusting 2 17.8
2019-Jun-19 10:47 143 17.8
2019-Jun-19 10:33 117 18.3
2019-Jun-19 10:16 098 0 gusting 2 17.8
2019-Jun-19 10:01 065 17.2
2019-Jun-19 09:46 206 16.7
2019-Jun-19 09:30 188 0 gusting 2 16.7
2019-Jun-19 09:15 123 16.1
2019-Jun-19 09:01 136 16.1
2019-Jun-19 08:45 178 16.1
2019-Jun-19 08:30 178 15.6
2019-Jun-19 08:15 117 15.6
2019-Jun-19 08:00 139 0 gusting 5 16.1
2019-Jun-19 07:46 086 2 gusting 6 16.1
2019-Jun-19 07:32 130 0 gusting 3 15.6
2019-Jun-19 07:16 141 0 gusting 3 14.4
2019-Jun-19 07:02 163 1 gusting 3 13.9
2019-Jun-19 06:46 164 12.8
2019-Jun-19 06:31 150 12.8
2019-Jun-19 06:15 152 12.8
2019-Jun-19 06:01 152 12.2
2019-Jun-19 05:45 152 12.8
2019-Jun-19 05:30 152 12.2
2019-Jun-19 05:15 152 12.2
2019-Jun-19 05:00 152 11.7
2019-Jun-19 04:45 152 11.7
2019-Jun-19 04:30 152 11.7
2019-Jun-19 04:16 152 11.7
2019-Jun-19 04:01 152 11.7
2019-Jun-19 03:47 152 11.7
2019-Jun-19 03:31 205 11.7
2019-Jun-19 03:16 205 11.7
2019-Jun-19 03:01 205 11.7
2019-Jun-19 02:47 186 11.7
2019-Jun-19 02:30 183 11.7
2019-Jun-19 02:15 183 11.7
2019-Jun-19 02:00 180 11.7
2019-Jun-19 01:45 180 11.1
2019-Jun-19 01:30 180 11.1
2019-Jun-19 01:15 143 11.1
2019-Jun-19 01:02 038 11.1
2019-Jun-19 00:47 038 11.7
2019-Jun-19 00:32 169 11.7
2019-Jun-19 00:16 169 12.2
2019-Jun-19 00:01 250 12.2
2019-Jun-18 23:45 196 12.2
2019-Jun-18 23:31 196 12.2
2019-Jun-18 23:15 196 12.2
2019-Jun-18 23:00 170 12.2
2019-Jun-18 22:45 170 12.8
2019-Jun-18 22:30 170 12.8
2019-Jun-18 22:15 158 1 gusting 4 12.8
2019-Jun-18 22:00 159 12.8
2019-Jun-18 21:45 184 0 gusting 3 13.3
2019-Jun-18 21:01 155 0 gusting 5 13.3
2019-Jun-18 20:46 144 0 gusting 3 13.9
2019-Jun-18 20:31 157 14.4
2019-Jun-18 20:16 157 15.0
2019-Jun-18 20:00 170 1 gusting 6 15.0
2019-Jun-18 19:46 149 3 gusting 8 15.6
2019-Jun-18 19:30 217 2 gusting 7 15.6
2019-Jun-18 19:15 163 5 gusting 13 15.6
2019-Jun-18 19:00 234 2 gusting 8 16.1
2019-Jun-18 18:45 203 4 gusting 11 16.1
2019-Jun-18 18:30 209 4 gusting 11 16.1
2019-Jun-18 18:15 123 4 gusting 9 16.1
2019-Jun-18 18:00 191 3 gusting 10 16.1
2019-Jun-18 17:47 140 5 gusting 8 16.1
2019-Jun-18 17:31 185 5 gusting 10 16.7
2019-Jun-18 17:17 207 2 gusting 14 16.7
2019-Jun-18 17:01 182 3 gusting 11 16.7
2019-Jun-18 16:46 168 5 gusting 12 16.7
2019-Jun-18 16:31 153 3 gusting 8 16.7
2019-Jun-18 16:15 138 6 gusting 13 17.2
2019-Jun-18 16:00 159 5 gusting 12 17.2
2019-Jun-18 15:45 207 5 gusting 11 17.2
2019-Jun-18 15:30 228 5 gusting 10 17.8
2019-Jun-18 15:15 198 5 gusting 12 17.8
2019-Jun-18 15:00 138 6 gusting 13 17.8
2019-Jun-18 14:45 188 6 gusting 12 17.8
2019-Jun-18 14:32 158 6 gusting 15 17.8
2019-Jun-18 14:16 144 3 gusting 15 17.8
2019-Jun-18 14:02 176 6 gusting 13 17.8
2019-Jun-18 13:46 153 6 gusting 14 17.8
2019-Jun-18 13:31 136 5 gusting 13 18.3
2019-Jun-18 13:16 173 7 gusting 14 18.3
2019-Jun-18 13:02 194 6 gusting 13 18.9
2019-Jun-18 12:46 127 4 gusting 14 18.9
2019-Jun-18 12:30 275 8 gusting 20 18.3
2019-Jun-18 12:15 170 6 gusting 14 18.9
2019-Jun-18 12:00 109 6 gusting 18 18.9
2019-Jun-18 11:45 197 6 gusting 11 17.8
2019-Jun-18 11:30 164 6 gusting 13 17.2
2019-Jun-18 11:15 207 5 gusting 11 17.2
2019-Jun-18 11:00 171 4 gusting 14 17.8
2019-Jun-18 10:47 172 6 gusting 12 17.8
2019-Jun-18 10:33 142 4 gusting 10 17.2
2019-Jun-18 10:17 273 5 gusting 15 17.2
2019-Jun-18 10:01 204 6 gusting 13 15.6
2019-Jun-18 09:46 198 2 gusting 6 15.0
2019-Jun-18 09:31 130 1 gusting 6 15.0
2019-Jun-18 09:16 163 3 gusting 8 14.4
2019-Jun-18 09:01 159 2 gusting 7 14.4
2019-Jun-18 08:45 175 2 gusting 6 14.4
2019-Jun-18 08:30 146 2 gusting 8 14.4
2019-Jun-18 08:15 190 4 gusting 8 14.4
2019-Jun-18 08:00 192 2 gusting 6 14.4
2019-Jun-18 07:45 147 0 gusting 5 13.9
2019-Jun-18 07:31 126 0 gusting 6 13.9
2019-Jun-18 07:16 163 4 gusting 12 13.9
2019-Jun-18 07:01 154 2 gusting 7 13.9
2019-Jun-18 06:45 155 2 gusting 7 13.9
2019-Jun-18 06:31 152 1 gusting 8 13.9
2019-Jun-18 06:16 146 3 gusting 8 13.9
2019-Jun-18 06:00 167 4 gusting 10 13.9
2019-Jun-18 05:46 183 2 gusting 8 13.9
2019-Jun-18 05:30 134 3 gusting 12 13.9
2019-Jun-18 05:16 157 3 gusting 9 13.9
2019-Jun-18 05:00 161 2 gusting 6 13.3
2019-Jun-18 04:45 144 12.8
2019-Jun-18 04:30 178 0 gusting 4 12.8
2019-Jun-18 04:16 211 12.2
2019-Jun-18 04:01 191 12.2
2019-Jun-18 03:47 178 1 gusting 6 12.2
2019-Jun-18 03:32 108 3 gusting 6 12.2
2019-Jun-18 03:17 164 2 gusting 7 11.7
2019-Jun-18 03:00 164 1 gusting 7 11.7